Back to catalog

TIROS 1

AliveWeatherLEO
NORAD 29·PAYLOAD·🇺🇸 United States

Launched Apr 1, 1960 from Cape Canaveral Space Force Station

Loading…

Next Passes (next 24 hours)

TLE

FreshSource: Space-Track

Epoch: Sep 14, 2026, 10:56 UTC

1 00029U 60002B   26257.45618305  .00000271  00000-0  65118-4 0  9998
2 00029  48.3791 320.3687 0022710 292.7490  67.1024 14.78867736555348

Track TIROS 1 in real time with AllMySat

Download on the App Store